{"data":{"norad_id":55286,"intl_designator":"2023-010T","name":"STARLINK-5338","alt_names":[],"object_type":"PAYLOAD","status":"ACTIVE","operator":null,"country":"US","launch_date":"2023-01-19","launch_site_code":"AFWTR","launch_vehicle":null,"mission":null,"orbit_class":"UNKNOWN","rcs_meters":null,"size_class":null,"mass_kg":null,"dimensions":null,"purposes":["comms"],"wikipedia_slug":null,"has_3d_model":false,"image_url":null,"decayed_at":null,"tle_current":{"epoch":"2026-05-24T20:03:48.098304Z","epoch_age_seconds":89276,"freshness":"FRESH","line1":"1 55286U 23010T   26144.83597336  .00000037  00000+0  10871-4 0  9993","line2":"2 55286  69.9988 192.5239 0003733 268.4379  91.6353 14.98330881184671","mean_motion":14.98330881,"eccentricity":0.0003733,"inclination_deg":69.9988,"raan_deg":192.5239,"arg_perigee_deg":268.4379,"mean_anomaly_deg":91.6353,"bstar":1.0871e-5,"rev_number":18467,"period_min":96.106942615968,"perigee_km":569.45866053676,"apogee_km":574.64767251509,"semimajor_km":6950.1901665259,"source":"CELESTRAK","updated_at":"2026-05-25T13:38:17.733906Z"}}}